This is the latest recevied weather packets stored in our database for station/object W8KVG. If no packets are shown the sender has not sent any weather packets the latest 10 day(s).
| Time | Temp. | Humidity | Pressure | Rain* | Wind** | Luminosity | Snow |
|---|---|---|---|---|---|---|---|
| 1778123550 | 8.33° C | 84% | 1012.8 hPa | 0 mm | - | 0 W/m² | - |
| 1778123247 | 8.33° C | 82% | 1012.7 hPa | 0 mm | - | 0 W/m² | - |
| 1778122944 | 8.33° C | 81% | 1013 hPa | 0 mm | - | 0 W/m² | - |
| 1778122641 | 8.33° C | 76% | 1013 hPa | 0 mm | - | 0 W/m² | - |
| 1778122338 | 8.33° C | 77% | 1012.8 hPa | 0 mm | - | 0 W/m² | - |
| 1778122036 | 8.33° C | 77% | 1012.6 hPa | 0 mm | - | 0 W/m² | - |
| 1778121733 | 8.33° C | 78% | 1012.7 hPa | 0 mm | - | 0 W/m² | - |
| 1778121428 | 8.33° C | 75% | 1012.5 hPa | 0 mm | - | 0 W/m² | - |
| 1778121126 | 8.89° C | 74% | 1012.7 hPa | 0 mm | - | 0 W/m² | - |
| 1778120823 | 8.33° C | 74% | 1012.5 hPa | 0 mm | - | 0 W/m² | - |
| 1778120519 | 8.89° C | 77% | 1012.7 hPa | 0 mm | - | 0 W/m² | - |
| 1778120215 | 8.89° C | 74% | 1012.5 hPa | 0 mm | - | 0 W/m² | - |
| 1778119910 | 8.89° C | 73% | 1012.5 hPa | 0 mm | - | 0 W/m² | - |
| 1778119609 | 8.89° C | 73% | 1012.5 hPa | 0 mm | - | 0 W/m² | - |
| 1778119305 | 8.89° C | 74% | 1012.2 hPa | 0 mm | - | 0 W/m² | - |
| 1778119003 | 8.89° C | 74% | 1012.2 hPa | 0 mm | - | 0 W/m² | - |
| 1778118700 | 8.89° C | 74% | 1012.3 hPa | 0 mm | - | 0 W/m² | - |
| 1778118397 | 8.89° C | 72% | 1012.3 hPa | 0 mm | - | 0 W/m² | - |
| 1778118093 | 8.89° C | 72% | 1012 hPa | 0 mm | - | 0 W/m² | - |
| 1778117790 | 9.44° C | 72% | 1011.9 hPa | 0 mm | - | 0 W/m² | - |
| 1778117487 | 9.44° C | 70% | 1011.8 hPa | 0 mm | - | 0 W/m² | - |
| 1778117184 | 9.44° C | 70% | 1011.7 hPa | 0 mm | - | 0 W/m² | - |
| 1778116879 | 9.44° C | 71% | 1011.7 hPa | 0 mm | - | 0 W/m² | - |
| 1778116578 | 9.44° C | 69% | 1011.9 hPa | 0 mm | - | 0 W/m² | - |
| 1778116274 | 9.44° C | 68% | 1011.7 hPa | 0 mm | - | 0 W/m² | - |
* Rain latest hour (hover to see other rain measurements)
** Current wind speed in m/s (hover to see current wind gust speed)